OK1VCF-8 Weather Reports


time (UTC)temp
C
wind
direction
speed
KPH
gust
KPH
rain 1hr
cm
rain 24hr
cm
rain mn
cm
humidity
%
barometer
mb
20260506121306 23 0 0.0 0.0 0.00 0.00 0.00 48 1007.3
20260506120450 23 0 0.0 0.0 0.00 0.00 0.00 50 1007.3
20260506115637 22 0 0.0 0.0 0.00 0.00 0.00 50 1007.2
20260506114822 22 0 0.0 0.0 0.00 0.00 0.00 52 1007.3
20260506114024 22 0 0.0 0.0 0.00 0.00 0.00 50 1007.3
20260506113242 22 0 0.0 0.0 0.00 0.00 0.00 50 1007.4
20260506112501 23 0 0.0 0.0 0.00 0.00 0.00 48 1007.6
20260506111738 22 0 0.0 0.0 0.00 0.00 0.00 48 1007.6
20260506111018 22 0 0.0 0.0 0.00 0.00 0.00 50 1007.6
20260506110300 22 0 0.0 0.0 0.00 0.00 0.00 51 1007.6
20260506105538 21 0 0.0 0.0 0.00 0.00 0.00 50 1007.8
20260506104819 21 0 0.0 0.0 0.00 0.00 0.00 54 1007.8
20260506104101 21 0 0.0 0.0 0.00 0.00 0.00 53 1007.8
20260506103341 21 0 0.0 0.0 0.00 0.00 0.00 54 1008.0
20260506102337 21 0 0.0 0.0 0.00 0.00 0.00 52 1007.8
20260506101617 21 0 0.0 0.0 0.00 0.00 0.00 50 1008.0
20260506100857 22 0 0.0 0.0 0.00 0.00 0.00 55 1008.0
20260506100138 22 0 0.0 0.0 0.00 0.00 0.00 50 1008.0
20260506095415 22 0 0.0 0.0 0.00 0.00 0.00 54 1008.0
20260506094655 21 0 0.0 0.0 0.00 0.00 0.00 57 1008.0
20260506093935 20 0 0.0 0.0 0.00 0.00 0.00 58 1007.9
20260506093216 20 0 0.0 0.0 0.00 0.00 0.00 59 1008.0
20260506092457 18 0 0.0 0.0 0.00 0.00 0.00 60 1008.0
20260506091736 18 0 0.0 0.0 0.00 0.00 0.00 60 1008.1
20260506091016 20 0 0.0 0.0 0.00 0.00 0.00 56 1008.0
20260506084835 18 0 0.0 0.0 0.00 0.00 0.00 62 1008.0
20260506084117 19 0 0.0 0.0 0.00 0.00 0.00 60 1007.8
20260506083112 20 0 0.0 0.0 0.00 0.00 0.00 60 1008.0
20260506082351 20 0 0.0 0.0 0.00 0.00 0.00 64 1008.0
20260506081630 18 0 0.0 0.0 0.00 0.00 0.00 65 1007.9
20260506080911 18 0 0.0 0.0 0.00 0.00 0.00 66 1008.0
20260506080152 18 0 0.0 0.0 0.00 0.00 0.00 69 1008.0